Tracking 30995 objects as of 6-Jul-2025
HD Live streaming from Space Station
objects crossing your sky now

SL-3 DEB

Track SL-3 DEB now!
10-day predictions


NORAD ID: 14229
Int'l Code: 1983-075D
Perigee: 529.1 km
Apogee: 571.2 km
Inclination: 97.9 °
Period: 95.5 minutes
Semi major axis: 6921 km
RCS: 0.0149 m2 (small)
Launch date: July 24, 1983
Source: Commonwealth of Independent States (former USSR) (CIS)
Launch site: TYURATAM MISSILE AND SPACE COMPLEX (TTMTR)

Note: This is SATELLITE DEBRIS
Your satellite tracking list
ONEWEB-0339
Track 1 satellite(s)




NASA's NSSDC Master Catalog

Two Line Element Set (TLE):
1 14229U 83075D   25187.91050850  .00002609  00000-0  17337-3 0  9993
2 14229  97.8601 170.2444 0030388  63.9244 355.7418 15.07761625279666
Source of the keplerian elements: AFSPC